sat.trackr.live / text

‹ back to catalog

STARLINK-3522

NORAD 51725 · 2022-016M

PAYLOAD ACTIVE UNKNOWN

§ Identity

Operator
Country
US
Launch date
2022-02-21
Launch site
AFETR
Launch vehicle
Mass (kg)
RCS (m²)

Purposes: comms

External: N2YO · Heavens-Above · Gunter

§ Orbital elements

Epoch: 2026-09-20T02:57:09.641664Z

Period
93.90 min
Inclination
53.1601°
Eccentricity
0.0002026
Mean motion
15.33536156 rev/d
Perigee alt
463.9 km
Apogee alt
466.7 km
Semi-major
6,843.4 km
B*
-1.2880e-5
RAAN
165.7061°
Arg perigee
78.7622°
Mean anomaly
281.3608°
Rev number
25,291

§ Raw data

STARLINK-35221 51725U 22016M   26263.12302826 -.00000797  00000+0 -12880-4 0  99912 51725  53.1601 165.7061 0002026  78.7622 281.3608 15.33536156252911

JSON: /api/v1/satellites/51725 · /tle

For live sub-satellite position, see the globe view (requires WebGL).

§ Visibility from observer

Set your observer location to see the next 7 days of passes ≥ 10°. The values pass through the URL so the page stays shareable.

No JS? Fill the form by hand. The geolocation button needs JavaScript.